| time (UTC) | temp F | wind direction | speed MPH | gust MPH | rain 1hr in | rain 24hr in | rain mn in | humidity % | barometer mb |
| 20260906220005 | 33 | 185 | 0.0 | 6.0 | 0.00 | 0.00 | 0.00 | 79 | 868.1 |
| 20260906210005 | 33 | 158 | 0.0 | 3.0 | 0.00 | 0.00 | 0.00 | 79 | 868.1 |
| 20260906200008 | 33 | 142 | 0.0 | 3.0 | 0.00 | 0.00 | 0.00 | 79 | 868.1 |
| 20260906190005 | 33 | 136 | 0.0 | 3.0 | 0.00 | 0.00 | 0.00 | 79 | 868.1 |
| 20260906180005 | 33 | 196 | 0.0 | 5.0 | 0.00 | 0.00 | 0.00 | 79 | 868.1 |
| 20260906170005 | 33 | 109 | 0.0 | 3.0 | 0.00 | 0.00 | 0.00 | 79 | 868.1 |
| 20260906160005 | 33 | 148 | 0.0 | 3.0 | 0.00 | 0.00 | 0.00 | 79 | 868.1 |
| 20260906150005 | 33 | 147 | 0.0 | 2.0 | 0.00 | 0.00 | 0.00 | 79 | 868.1 |
| 20260906130005 | 33 | 129 | 0.0 | 2.0 | 0.00 | 0.00 | 0.00 | 79 | 868.1 |
| 20260906120005 | 33 | 130 | 0.0 | 2.0 | 0.00 | 0.00 | 0.00 | 79 | 868.1 |
| 20260906110006 | 33 | 99 | 0.0 | 3.0 | 0.00 | 0.00 | 0.00 | 79 | 868.1 |
| 20260906100011 | 33 | 146 | 0.0 | 3.0 | 0.00 | 0.00 | 0.00 | 79 | 868.1 |
| 20260906090005 | 33 | 206 | 0.0 | 3.0 | 0.00 | 0.00 | 0.00 | 79 | 868.1 |
| 20260906080005 | 33 | 296 | 0.0 | 3.0 | 0.00 | 0.00 | 0.00 | 79 | 868.1 |
| 20260906070005 | 33 | 129 | 0.0 | 2.0 | 0.00 | 0.00 | 0.00 | 79 | 868.1 |
| 20260906060013 | 33 | 133 | 0.0 | 3.0 | 0.00 | 0.00 | 0.00 | 79 | 868.1 |
| 20260906040005 | 33 | 82 | 0.0 | 3.0 | 0.00 | 0.00 | 0.00 | 79 | 868.1 |
| 20260906030006 | 33 | 94 | 0.0 | 2.0 | 0.00 | 0.00 | 0.00 | 79 | 868.1 |
| 20260906020005 | 33 | 126 | 0.0 | 2.0 | 0.00 | 0.00 | 0.00 | 79 | 868.1 |
| 20260906010005 | 33 | 137 | 0.0 | 2.0 | 0.00 | 0.00 | 0.00 | 79 | 868.1 |
| 20260906000005 | 33 | 104 | 0.0 | 3.0 | 0.00 | 0.00 | 0.00 | 79 | 868.1 |